カタログに戻る

FENGYUN 1C DEB

運用中PO
NORAD 30821·DEBRIS·🇨🇳 China

打ち上げ May 10, 1999 から Taiyuan Satellite Launch Center

Loading…

次のパス (今後24時間)

TLE

最新Source: Space-Track

元期: Sep 13, 2026, 23:00 UTC

1 30821U 99025AVF 26256.95871168  .00001387  00000-0  34812-3 0  9995
2 30821  99.1347  67.2352 0086063 102.8767  48.3230 14.50927974 27780

AllMySatでFENGYUN 1C DEBをリアルタイム追跡

Download on the App Store